Location: Gad�tanya
(48.0500°N, 20.8500°E)
Time: 22:59:19
(UTC+00:00)

Cosmos 1758 Rocket - Pass Details

Date: 05 July 2020
Orbit: 601 x 637 km, 82.5° (Epoch: 05 August)

Event Time Altitude Azimuth Distance (km) Brightness Sun altitude
Rises 19:31:01 0° 182° (S) 2,922 6.6 -7.4°
Reaches altitude 10° 19:33:15 10° 181° (S) 2,020 5.8 -7.7°
Maximum altitude 19:37:44 74° 97° (E) 669 3.6 -8.2°
Drops below altitude 10° 19:42:14 10° 13° (NNE) 2,034 6.7 -8.7°
Sets 19:44:29 0° 12° (NNE) 2,944 7.6 -8.9°
